Content
SEND FEEDBACK

Daily
Averages
Monthly
Summary
Canada

QUEBEC CITY, QUEBEC


Home > North America > Canada > Quebec
Elevation: 239 feet     Latitude: 46 48N     Longitude: 071 23W

WEATHER
 
SELECT A DAY
Number of Records: 195,813;   Date Range: 6/30/96 - 10/21/14
 
SHARE

PRINT THIS DATA

[ ← Previous Day ]
WEATHER ALMANAC - JANUARY 12, 2014
[ Next Day → ]
[ °C ]   °F
Weather ElementAverageHighLow
Temperature35.9 °F41 °F (3:00 am)30.2 °F (11:00 pm)
Dewpoint30.3 °F38 °F (1:00 am)19.4 °F (10:00 pm)
Humidity79.4 %100 % (1:00 am)50 % (10:00 pm)
Barometer29.36 in29.82 in (11:00 pm)29.03 in (12:40 am)
Wind Speed18.4 mph28.8 mph (5:00 am)
Wind Gust39.1 mph (5:00 am)
Weather ElementAverage
Visibility14.9 mi
Wind DirectionWSW (247.3 °)

Weather ElementTotal
Precipitation---
Heating Degree Days29.4 (Base 65)
Averaged from 38 records on January 12, 2014
WEATHER CONDITIONS BREAKOUT
WIND DIRECTION BREAKOUT
WEATHER BY HOUR - JANUARY 12, 2014
[ °C ]   °F
Local TimeTemperatureDewpointHumidityBarometerVisibilityWind DirectionWind SpeedGust SpeedPrecipitationEventsConditions
12:40 AM33.8 °F32.0 °F93 %29.03 in2.0 miWSW (240°)6.9 mphRainLight Rain
1:00 AM38.0 °F38.0 °F99 %29.05 inCalm
1:00 AM35.6 °F35.6 °F100 %29.06 in1.5 miSW (230°)11.5 mphRainLight Rain
1:32 AM39.2 °F37.4 °F93 %29.05 in5.0 miSW (230°)19.6 mph26.5 mphRainLight Rain
2:00 AM39.2 °F37.4 °F93 %29.06 in10.0 miSW (230°)18.4 mph26.5 mphRainLight Rain
2:30 AM39.2 °F37.4 °F93 %29.07 in10.0 miSW (230°)20.7 mph28.8 mphOvercast
3:00 AM41.0 °F37.4 °F87 %29.09 in12.0 miSW (220°)25.3 mph32.2 mphOvercast
4:00 AM40.0 °F36.0 °F81 %29.11 inWSW (240°)13.8 mph
4:00 AM39.2 °F35.6 °F87 %29.12 in15.0 miSW (230°)26.5 mph34.5 mphOvercast
5:00 AM37.4 °F33.8 °F87 %29.14 in15.0 miSW (230°)28.8 mph39.1 mphOvercast
5:22 AM37.4 °F33.8 °F87 %29.14 in10.0 miWSW (240°)27.6 mph33.4 mphRainLight Rain Showers
6:00 AM37.4 °F33.8 °F87 %29.17 in10.0 miWSW (240°)25.3 mph32.2 mphRainLight Rain Showers
6:45 AM35.6 °F33.8 °F93 %29.19 in15.0 miWSW (240°)23.0 mph31.1 mphOvercast
7:00 AM37.0 °F34.0 °F86 %29.19 inWSW (250°)16.1 mph
7:00 AM35.6 °F33.8 °F93 %29.19 in15.0 miWSW (250°)25.3 mph34.5 mphOvercast
7:34 AM35.6 °F32.0 °F87 %29.22 in15.0 miWSW (240°)21.9 mph29.9 mphOvercast
8:00 AM35.6 °F32.0 °F87 %29.24 in15.0 miWSW (240°)21.9 mph28.8 mphOvercast
9:00 AM35.6 °F32.0 °F87 %29.29 in15.0 miSW (230°)19.6 mph28.8 mphMostly Cloudy
10:00 AM35.6 °F30.2 °F81 %29.34 in25.0 miWSW (240°)21.9 mph28.8 mphMostly Cloudy
10:00 AM37.0 °F32.0 °F75 %29.33 inWSW (240°)13.8 mph
11:00 AM35.6 °F26.6 °F70 %29.37 in25.0 miWest (260°)17.3 mph31.1 mphMostly Cloudy
12:00 PM35.6 °F26.6 °F70 %29.40 in25.0 miWSW (250°)15.0 mph24.2 mphMostly Cloudy
1:00 PM36.0 °F28.0 °F63 %29.43 inWest (260°)13.8 mph
1:00 PM35.6 °F26.6 °F70 %29.43 in20.0 miWest (260°)21.9 mphSnowLight Snow Showers
2:00 PM35.6 °F24.8 °F65 %29.46 in25.0 miWest (270°)18.4 mphSnowLight Snow Showers
3:00 PM35.6 °F26.6 °F70 %29.49 in20.0 miWSW (250°)19.6 mphMostly Cloudy
4:00 PM36.0 °F28.0 °F62 %29.54 inWSW (250°)11.5 mph
4:00 PM35.6 °F26.6 °F70 %29.54 in20.0 miWSW (240°)15.0 mphMostly Cloudy
5:00 PM33.8 °F30.2 °F87 %29.58 in15.0 miWSW (240°)17.3 mph23.0 mphSnowLight Snow Showers
5:35 PM33.8 °F30.2 °F87 %29.60 in15.0 miWSW (240°)15.0 mphOvercast
6:00 PM33.8 °F30.2 °F87 %29.62 in15.0 miWSW (250°)15.0 mphOvercast
7:00 PM36.0 °F28.0 °F62 %29.65 inWest (260°)13.8 mph
7:00 PM35.6 °F26.6 °F70 %29.66 in15.0 miWest (260°)16.1 mph23.0 mphOvercast
8:00 PM33.8 °F23.0 °F65 %29.72 in15.0 miWest (280°)21.9 mph32.2 mphMostly Cloudy
9:00 PM32.0 °F21.2 °F64 %29.75 in15.0 miWest (280°)16.1 mph27.6 mphOvercast
10:00 PM32.0 °F20.0 °F50 %29.78 inWest (260°)19.6 mph
10:00 PM32.0 °F19.4 °F60 %29.79 in15.0 miWest (270°)25.3 mph32.2 mphOvercast
11:00 PM30.2 °F21.2 °F69 %29.82 in15.0 miWest (280°)17.3 mph24.2 mphOvercast
Hourly data recorded from CYQB, located miles away from Quebec City, Quebec







STORIES FROM OUR PARTNERS